Newton, KS

11:50 AM CST on November 22, 2019 (GMT -0600)
Newton City County

Weather History for KEWK - August, 2019

Change the Weather History Date:

Friday, August 2, 2019

  Actual Average Record
Temperature  
Mean Temperature 72 °F -  
Max Temperature 77 °F 87 °F 109 °F (2011)
Min Temperature 66 °F 67 °F 62 °F (2014)
Cooling Degree Days 6    
Growing Degree Days 22 (Base 50)    
Moisture  
Dew Point 69 °F    
Average Humidity 89    
Maximum Humidity 100    
Minimum Humidity 74    
Precipitation  
Precipitation 0.81 in - - ()
Sea Level Pressure  
Sea Level Pressure 30.02 in    
Wind  
Wind Speed 15 mph (ESE)    
Max Wind Speed 24 mph    
Max Gust Speed 34 mph    
Visibility 9 miles    
Events Rain , Thunderstorm    
Averages and records for this station are not official NWS values.
T = Trace of Precipitation, MM = Missing Value Source: NWS Daily Summary

Daily Weather History Graph

Daily Weather History Graph

Search for Another Location

Airport or City:

Astronomy

Aug. 02, 2019 Rise Set
Actual Time 6:32 AM CDT 8:37 PM CDT
Civil Twilight 6:03 AM CDT 9:06 PM CDT
Nautical Twilight 5:27 AM CDT 9:42 PM CDT
Astronomical Twilight 4:49 AM CDT 10:20 PM CDT
Moon 8:12 AM CDT (8/2) 10:08 PM CDT (8/2)
Length of Visible Light 15h 03m
Length of Day
14h 04m
Waxing Crescent, 4% of the Moon is Illuminated
Aug 2
Waxing Crescent
Aug 7
First Quarter
Aug 15
Full
Aug 23
Last Quarter
Aug 30
New

Hourly Weather History & Observations

Time (CDT) Temp. Dew Point Humidity Pressure Visibility Wind Dir Wind Speed Gust Speed Precip Events Conditions
12:18 AM 75.2 °F 71.6 °F 89% 30.07 in 10.0 mi East 11.5 mph 17.3 mph N/A Thunderstorm Unknown
12:37 AM 75.2 °F 71.6 °F 89% 30.06 in 10.0 mi ESE 16.1 mph 24.2 mph N/A   Unknown
12:56 AM 73.9 °F 71.1 °F 91% 30.00 in 10.0 mi ESE 18.4 mph 24.2 mph N/A   Unknown
1:44 AM 73.4 °F 69.8 °F 88% 30.05 in 10.0 mi ESE 18.4 mph 23.0 mph N/A Thunderstorm Overcast
1:56 AM 73.9 °F 69.1 °F 85% 29.98 in 10.0 mi SE 23.0 mph 27.6 mph N/A Thunderstorm Unknown
2:17 AM 73.4 °F 69.8 °F 88% 30.02 in 10.0 mi ESE 16.1 mph - N/A Thunderstorm Unknown
2:52 AM 75.2 °F 69.8 °F 83% 30.02 in 10.0 mi SE 23.0 mph 31.1 mph N/A Thunderstorm Unknown
2:56 AM 75.0 °F 70.0 °F 84% 29.97 in 10.0 mi ESE 17.3 mph 31.1 mph N/A Thunderstorm Unknown
3:13 AM 73.4 °F 69.8 °F 88% 30.05 in 10.0 mi ESE 17.3 mph 24.2 mph N/A   Unknown
3:38 AM 71.6 °F 68.0 °F 88% 30.08 in 10.0 mi NE 13.8 mph 19.6 mph 0.00 in Rain , Thunderstorm Light Rain
3:56 AM 68.0 °F 64.9 °F 90% 30.04 in 3.0 mi East 15.0 mph 28.8 mph 0.15 in Rain , Thunderstorm Heavy Thunderstorms and Rain
4:06 AM 66.2 °F 66.2 °F 100% 30.06 in 2.5 mi ESE 24.2 mph 32.2 mph 0.24 in Rain , Thunderstorm Heavy Thunderstorms and Rain
4:18 AM 66.2 °F 66.2 °F 100% 30.06 in 3.0 mi ESE 24.2 mph 34.5 mph 0.44 in Rain , Thunderstorm Thunderstorms and Rain
4:56 AM 66.9 °F 66.0 °F 97% 29.99 in 9.0 mi SSE 17.3 mph 23.0 mph 0.50 in Rain , Thunderstorm Thunderstorms and Rain
5:56 AM 66.0 °F 64.9 °F 96% 30.00 in 10.0 mi SE 10.4 mph - 0.05 in Rain Light Rain
6:56 AM 66.0 °F 64.9 °F 96% 30.05 in 10.0 mi NE 11.5 mph - 0.02 in Rain Light Rain
7:56 AM 68.0 °F 66.9 °F 96% 30.04 in 10.0 mi East 10.4 mph - 0.03 in Rain Light Rain
8:56 AM 69.1 °F 68.0 °F 96% 30.05 in 10.0 mi SE 15.0 mph - 0.05 in Rain Light Rain
9:56 AM 71.1 °F 69.1 °F 93% 30.02 in 10.0 mi SE 17.3 mph - 0.01 in   Unknown
10:56 AM 73.0 °F 70.0 °F 90% 30.02 in 10.0 mi SE 17.3 mph 23.0 mph N/A   Unknown
11:56 AM 73.9 °F 69.1 °F 85% 30.01 in 10.0 mi SSE 15.0 mph - N/A   Clear
12:56 PM 75.0 °F 70.0 °F 84% 29.99 in 10.0 mi SSE 12.7 mph - N/A   Unknown
1:56 PM 75.9 °F 69.1 °F 79% 29.99 in 10.0 mi SSE 11.5 mph - N/A   Partly Cloudy
2:56 PM 75.9 °F 69.1 °F 79% 29.99 in 10.0 mi SE 12.7 mph - 0.00 in   Unknown
3:56 PM 75.9 °F 69.1 °F 79% 29.99 in 10.0 mi ESE 6.9 mph - N/A   Partly Cloudy
4:56 PM 77.0 °F 69.1 °F 76% 29.98 in 10.0 mi SE 11.5 mph - N/A   Clear
5:56 PM 77.0 °F 68.0 °F 74% 29.98 in 10.0 mi East 9.2 mph - N/A   Unknown
6:56 PM 75.9 °F 69.1 °F 79% 29.98 in 10.0 mi East 8.1 mph - N/A   Overcast
7:56 PM 75.0 °F 71.1 °F 87% 29.99 in 10.0 mi ESE 12.7 mph - N/A   Overcast
8:56 PM 73.0 °F 70.0 °F 90% 30.00 in 10.0 mi East 6.9 mph - N/A   Unknown
9:56 PM 72.0 °F 70.0 °F 93% 30.01 in 10.0 mi East 6.9 mph - N/A   Unknown
10:56 PM 71.1 °F 70.0 °F 96% 30.01 in 10.0 mi East 6.9 mph - N/A   Partly Cloudy
11:56 PM 71.1 °F 69.1 °F 93% 30.01 in 10.0 mi East 10.4 mph - N/A   Unknown